QPF
0.01 0.01 0.01 0.02 0.02 0.01 0.01 0.02 0.04 0.03 0.04 0.04 0.05 0.06 0.08 0.09 0.09 0.07 0.03 0.01 0.02 0.04 0.05 0.05 0.06 0.05 0.04 0.05 0.06 0.08 0.11 0.12 0.11 0.12 0.10 0.07 0.06 0.06 0.07 0.06 0.07 0.06 0.07
0.01 0.02 0.01 0.02 0.01 0.01 0.00 0.01 0.03 0.02 0.02 0.04 0.04 0.04 0.05 0.05 0.05 0.05 0.05 0.04 0.03 0.03 0.04 0.06 0.06 0.05 0.05 0.05 0.06 0.08 0.12 0.13 0.12 0.13 0.14 0.13 0.10 0.07 0.05 0.05 0.05 0.05 0.05
0.01 0.01 0.01 0.01 0.01 0.00 0.00 0.01 0.02 0.03 0.03 0.04 0.04 0.04 0.05 0.05 0.05 0.05 0.06 0.06 0.04 0.04 0.05 0.06 0.05 0.06 0.04 0.06 0.07 0.06 0.10 0.14 0.13 0.11 0.13 0.14 0.13 0.12 0.09 0.07 0.08 0.08 0.08
0.00 0.01 0.00 0.00 0.01 0.00 0.01 0.01 0.02 0.03 0.03 0.04 0.04 0.05 0.04 0.04 0.04 0.05 0.04 0.04 0.03 0.02 0.02 0.03 0.04 0.04 0.04 0.05 0.04 0.05 0.07 0.12 0.13 0.12 0.11 0.13 0.13 0.11 0.12 0.11 0.10 0.09 0.09
0.00 0.00 0.00 0.00 0.00 0.00 0.00 0.01 0.02 0.02 0.02 0.03 0.04 0.04 0.04 0.04 0.03 0.03 0.03 0.03 0.03 0.02 0.01 0.01 0.02 0.03 0.04 0.04 0.04 0.05 0.06 0.09 0.10 0.11 0.12 0.12 0.12 0.12 0.13 0.13 0.11 0.08 0.06
0.00 0.00 0.00 0.00 0.00 0.00 0.00 0.01 0.02 0.02 0.02 0.02 0.02 0.03 0.03 0.03 0.04 0.04 0.03 0.03 0.03 0.03 0.02 0.01 0.01 0.02 0.02 0.02 0.02 0.02 0.03 0.04 0.06 0.09 0.09 0.10 0.10 0.12 0.12 0.11 0.11 0.08 0.05
0.00 0.00 0.00 0.00 0.00 0.00 0.00 0.00 0.02 0.02 0.03 0.02 0.02 0.03 0.03 0.03 0.03 0.03 0.03 0.03 0.03 0.03 0.02 0.02 0.02 0.01 0.01 0.01 0.01 0.02 0.03 0.03 0.04 0.07 0.06 0.05 0.07 0.08 0.08 0.08 0.09 0.08 0.06
0.00 0.00 0.00 0.00 0.00 0.00 0.00 0.01 0.01 0.02 0.02 0.02 0.02 0.03 0.03 0.03 0.03 0.03 0.02 0.03 0.02 0.02 0.02 0.01 0.01 0.01 0.01 0.02 0.03 0.03 0.02 0.02 0.02 0.04 0.05 0.07 0.06 0.06 0.06 0.06 0.08 0.07 0.06
0.00 0.00 0.00 0.00 0.00 0.00 0.01 0.01 0.01 0.01 0.02 0.02 0.01 0.02 0.01 0.01 0.02 0.02 0.01 0.01 0.01 0.02 0.02 0.01 0.01 0.01 0.02 0.03 0.03 0.03 0.02 0.02 0.03 0.04 0.05 0.06 0.05 0.03 0.02 0.02 0.05 0.07 0.06
0.00 0.01 0.00 0.00 0.00 0.01 0.01 0.01 0.01 0.01 0.02 0.02 0.01 0.01 0.01 0.01 0.01 0.01 0.01 0.01 0.01 0.01 0.02 0.01 0.01 0.02 0.03 0.03 0.02 0.02 0.02 0.02 0.03 0.04 0.04 0.05 0.03 0.03 0.02 0.02 0.02 0.03 0.05
0.01 0.03 0.02 0.01 0.01 0.01 0.01 0.02 0.02 0.01 0.01 0.01 0.02 0.01 0.01 0.00 0.00 0.01 0.01 0.01 0.01 0.02 0.02 0.01 0.01 0.03 0.03 0.03 0.03 0.02 0.02 0.03 0.03 0.03 0.04 0.04 0.04 0.03 0.03 0.02 0.02 0.02 0.03
0.01 0.05 0.05 0.02 0.01 0.01 0.01 0.02 0.02 0.01 0.01 0.01 0.01 0.01 0.01 0.01 0.01 0.01 0.01 0.01 0.01 0.01 0.02 0.01 0.01 0.02 0.02 0.04 0.03 0.02 0.02 0.03 0.04 0.04 0.04 0.03 0.04 0.04 0.03 0.03 0.03 0.02 0.03
0.00 0.01 0.02 0.03 0.02 0.01 0.01 0.01 0.01 0.01 0.01 0.01 0.01 0.01 0.01 0.00 0.01 0.02 0.02 0.01 0.01 0.01 0.02 0.01 0.01 0.02 0.02 0.02 0.02 0.01 0.01 0.02 0.04 0.04 0.03 0.02 0.03 0.03 0.03 0.03 0.03 0.02 0.02
0.00 0.00 0.00 0.00 0.01 0.01 0.01 0.01 0.01 0.01 0.00 0.00 0.01 0.00 0.00 0.00 0.01 0.01 0.01 0.01 0.01 0.01 0.01 0.01 0.02 0.01 0.01 0.01 0.01 0.00 0.01 0.03 0.03 0.03 0.02 0.02 0.02 0.01 0.02 0.03 0.03 0.02 0.03
0.00 0.00 0.00 0.00 0.01 0.01 0.01 0.01 0.00 0.00 0.00 0.00 0.00 0.00 0.00 0.00 0.00 0.01 0.01 0.01 0.01 0.01 0.01 0.02 0.02 0.01 0.01 0.01 0.01 0.02 0.02 0.05 0.04 0.03 0.02 0.02 0.02 0.01 0.01 0.01 0.03 0.03 0.02
0.01 0.00 0.00 0.00 0.01 0.01 0.01 0.01 0.00 0.00 0.00 0.01 0.01 0.01 0.01 0.00 0.00 0.00 0.00 0.01 0.01 0.01 0.02 0.01 0.02 0.02 0.01 0.02 0.02 0.02 0.02 0.04 0.04 0.03 0.02 0.02 0.02 0.01 0.00 0.00 0.01 0.02 0.02
0.00 0.00 0.00 0.00 0.01 0.01 0.01 0.01 0.00 0.01 0.01 0.01 0.01 0.01 0.01 0.01 0.00 0.00 0.01 0.00 0.01 0.01 0.01 0.01 0.02 0.03 0.03 0.02 0.02 0.02 0.02 0.02 0.02 0.02 0.02 0.02 0.02 0.01 0.01 0.01 0.01 0.01 0.01
0.00 0.00 0.00 0.00 0.01 0.01 0.01 0.01 0.01 0.01 0.04 0.03 0.02 0.02 0.02 0.02 0.01 0.01 0.01 0.01 0.01 0.01 0.02 0.02 0.02 0.02 0.02 0.02 0.02 0.02 0.02 0.03 0.02 0.02 0.02 0.03 0.02 0.01 0.02 0.03 0.02 0.02 0.02
0.00 0.00 0.00 0.00 0.00 0.00 0.00 0.01 0.00 0.01 0.02 0.02 0.02 0.03 0.03 0.03 0.03 0.02 0.02 0.02 0.02 0.02 0.03 0.02 0.02 0.02 0.03 0.02 0.01 0.01 0.01 0.02 0.02 0.02 0.03 0.03 0.02 0.02 0.02 0.03 0.03 0.02 0.01
0.01 0.01 0.00 0.00 0.00 0.00 0.00 0.00 0.00 0.01 0.01 0.02 0.02 0.02 0.03 0.03 0.03 0.03 0.03 0.03 0.03 0.03 0.03 0.03 0.03 0.04 0.04 0.03 0.01 0.02 0.02 0.02 0.03 0.04 0.04 0.03 0.02 0.02 0.02 0.03 0.04 0.03 0.02
0.02 0.01 0.01 0.01 0.01 0.00 0.01 0.01 0.01 0.01 0.01 0.02 0.02 0.03 0.03 0.03 0.02 0.03 0.03 0.03 0.03 0.03 0.03 0.03 0.04 0.04 0.04 0.03 0.02 0.02 0.01 0.01 0.02 0.02 0.01 0.02 0.02 0.01 0.02 0.03 0.05 0.04 0.03
0.01 0.01 0.01 0.01 0.01 0.00 0.01 0.01 0.02 0.02 0.02 0.02 0.02 0.02 0.02 0.01 0.02 0.03 0.03 0.03 0.02 0.02 0.02 0.03 0.02 0.02 0.03 0.02 0.01 0.01 0.01 0.01 0.01 0.01 0.01 0.01 0.01 0.02 0.04 0.06 0.09 0.07 0.05
0.01 0.01 0.01 0.01 0.01 0.01 0.01 0.02 0.03 0.03 0.04 0.04 0.04 0.04 0.03 0.02 0.02 0.03 0.03 0.03 0.03 0.02 0.01 0.02 0.01 0.01 0.02 0.02 0.01 0.01 0.01 0.01 0.01 0.01 0.01 0.01 0.01 0.01 0.02 0.04 0.04 0.02 0.01
0.03 0.01 0.01 0.01 0.01 0.01 0.01 0.02 0.02 0.03 0.03 0.04 0.05 0.06 0.05 0.04 0.03 0.03 0.03 0.03 0.03 0.02 0.02 0.02 0.01 0.01 0.01 0.01 0.01 0.01 0.01 0.01 0.01 0.01 0.01 0.01 0.01 0.00 0.00 0.01 0.02 0.02 0.01
0.04 0.02 0.02 0.01 0.01 0.01 0.02 0.02 0.02 0.02 0.02 0.03 0.04 0.06 0.06 0.06 0.05 0.04 0.04 0.03 0.03 0.03 0.03 0.02 0.02 0.01 0.01 0.01 0.02 0.01 0.01 0.01 0.01 0.01 0.00 0.00 0.00 0.00 0.00 0.01 0.01 0.02 0.03
0.03 0.02 0.03 0.02 0.02 0.02 0.02 0.02 0.02 0.02 0.02 0.03 0.03 0.04 0.05 0.05 0.04 0.04 0.03 0.04 0.04 0.04 0.03 0.03 0.03 0.02 0.02 0.01 0.01 0.01 0.01 0.01 0.01 0.01 0.00 0.00 0.01 0.01 0.01 0.01 0.01 0.01 0.02
MSLP
1001.30 1002.10 1002.72 1003.13 1003.32 1003.35 1003.31 1003.29 1003.35 1003.56 1003.90 1004.36 1004.90 1005.46 1006.01 1006.53 1007.00 1007.46 1007.92 1008.43 1008.99 1009.62 1010.32 1011.07 1011.86 1012.66 1013.49 1014.32 1015.17 1016.04 1016.92 1017.80 1018.63 1019.37 1019.98 1020.42 1020.66 1020.70 1020.57 1020.31 1019.98 1019.64 1019.34
1000.98 1001.86 1002.54 1002.97 1003.16 1003.17 1003.09 1003.02 1003.04 1003.23 1003.57 1004.06 1004.64 1005.24 1005.83 1006.37 1006.85 1007.30 1007.76 1008.27 1008.85 1009.52 1010.27 1011.08 1011.93 1012.78 1013.62 1014.45 1015.26 1016.07 1016.87 1017.66 1018.42 1019.12 1019.71 1020.16 1020.44 1020.54 1020.46 1020.25 1019.95 1019.63 1019.34
1000.65 1001.62 1002.38 1002.87 1003.09 1003.10 1003.00 1002.89 1002.88 1003.03 1003.37 1003.86 1004.45 1005.08 1005.69 1006.24 1006.72 1007.18 1007.63 1008.14 1008.74 1009.44 1010.24 1011.11 1012.01 1012.91 1013.77 1014.59 1015.36 1016.09 1016.80 1017.49 1018.16 1018.79 1019.35 1019.80 1020.11 1020.26 1020.25 1020.12 1019.89 1019.63 1019.38
1000.33 1001.40 1002.26 1002.83 1003.10 1003.13 1003.02 1002.88 1002.84 1002.96 1003.27 1003.75 1004.34 1004.97 1005.59 1006.15 1006.65 1007.10 1007.56 1008.08 1008.70 1009.43 1010.27 1011.19 1012.14 1013.08 1013.96 1014.76 1015.48 1016.13 1016.75 1017.33 1017.91 1018.46 1018.96 1019.40 1019.72 1019.92 1019.98 1019.92 1019.78 1019.60 1019.42
1000.03 1001.20 1002.16 1002.83 1003.16 1003.23 1003.12 1002.96 1002.89 1002.97 1003.25 1003.71 1004.29 1004.93 1005.55 1006.13 1006.64 1007.11 1007.58 1008.12 1008.75 1009.51 1010.38 1011.34 1012.32 1013.28 1014.16 1014.94 1015.62 1016.21 1016.73 1017.21 1017.68 1018.15 1018.59 1018.98 1019.31 1019.54 1019.66 1019.68 1019.62 1019.52 1019.42
999.74 1001.01 1002.08 1002.83 1003.24 1003.34 1003.25 1003.08 1002.98 1003.04 1003.28 1003.72 1004.29 1004.94 1005.58 1006.18 1006.72 1007.21 1007.71 1008.27 1008.92 1009.69 1010.57 1011.54 1012.54 1013.50 1014.37 1015.14 1015.77 1016.30 1016.74 1017.13 1017.50 1017.88 1018.25 1018.60 1018.91 1019.15 1019.31 1019.39 1019.41 1019.39 1019.36
999.46 1000.83 1001.99 1002.82 1003.29 1003.44 1003.37 1003.21 1003.09 1003.13 1003.36 1003.78 1004.35 1005.01 1005.68 1006.31 1006.89 1007.42 1007.95 1008.52 1009.18 1009.95 1010.83 1011.78 1012.76 1013.71 1014.57 1015.30 1015.90 1016.37 1016.75 1017.07 1017.36 1017.66 1017.96 1018.26 1018.54 1018.78 1018.97 1019.09 1019.16 1019.20 1019.23
999.20 1000.64 1001.87 1002.76 1003.29 1003.49 1003.45 1003.32 1003.21 1003.24 1003.47 1003.89 1004.48 1005.16 1005.86 1006.53 1007.15 1007.72 1008.27 1008.86 1009.51 1010.26 1011.11 1012.03 1012.97 1013.88 1014.70 1015.40 1015.97 1016.40 1016.74 1017.00 1017.24 1017.48 1017.72 1017.98 1018.23 1018.46 1018.65 1018.79 1018.90 1018.98 1019.04
998.95 1000.43 1001.71 1002.66 1003.24 1003.50 1003.51 1003.42 1003.34 1003.40 1003.64 1004.09 1004.69 1005.39 1006.13 1006.84 1007.49 1008.09 1008.66 1009.24 1009.87 1010.59 1011.38 1012.24 1013.12 1013.98 1014.76 1015.43 1015.96 1016.38 1016.69 1016.93 1017.13 1017.33 1017.53 1017.75 1017.97 1018.18 1018.36 1018.51 1018.64 1018.74 1018.83
998.71 1000.21 1001.51 1002.50 1003.15 1003.47 1003.55 1003.53 1003.52 1003.63 1003.91 1004.38 1005.00 1005.73 1006.48 1007.21 1007.89 1008.50 1009.07 1009.63 1010.23 1010.89 1011.62 1012.41 1013.22 1014.02 1014.75 1015.38 1015.89 1016.30 1016.60 1016.83 1017.02 1017.20 1017.38 1017.57 1017.77 1017.96 1018.13 1018.28 1018.40 1018.52 1018.62
998.48 999.97 1001.28 1002.31 1003.01 1003.41 1003.60 1003.67 1003.75 1003.94 1004.27 1004.78 1005.42 1006.15 1006.91 1007.64 1008.31 1008.91 1009.46 1010.00 1010.55 1011.16 1011.82 1012.53 1013.28 1014.01 1014.69 1015.29 1015.79 1016.18 1016.49 1016.72 1016.91 1017.09 1017.26 1017.43 1017.61 1017.78 1017.94 1018.08 1018.21 1018.33 1018.44
998.27 999.73 1001.03 1002.08 1002.84 1003.34 1003.65 1003.85 1004.04 1004.32 1004.73 1005.27 1005.92 1006.65 1007.38 1008.08 1008.72 1009.29 1009.81 1010.31 1010.82 1011.37 1011.98 1012.63 1013.31 1013.98 1014.62 1015.19 1015.68 1016.07 1016.38 1016.62 1016.81 1016.98 1017.15 1017.31 1017.46 1017.62 1017.77 1017.90 1018.03 1018.16 1018.28
998.07 999.46 1000.74 1001.81 1002.64 1003.25 1003.68 1004.03 1004.36 1004.75 1005.23 1005.80 1006.46 1007.15 1007.85 1008.50 1009.09 1009.62 1010.10 1010.56 1011.04 1011.55 1012.11 1012.71 1013.35 1013.98 1014.58 1015.12 1015.59 1015.97 1016.28 1016.52 1016.71 1016.88 1017.03 1017.17 1017.31 1017.46 1017.59 1017.73 1017.86 1017.99 1018.14
997.87 999.18 1000.41 1001.48 1002.38 1003.09 1003.67 1004.17 1004.64 1005.14 1005.70 1006.30 1006.95 1007.61 1008.25 1008.84 1009.38 1009.85 1010.30 1010.73 1011.19 1011.68 1012.21 1012.80 1013.40 1014.00 1014.57 1015.09 1015.53 1015.90 1016.18 1016.41 1016.59 1016.74 1016.88 1017.00 1017.13 1017.26 1017.39 1017.52 1017.66 1017.81 1017.97
997.66 998.86 1000.02 1001.09 1002.04 1002.85 1003.56 1004.21 1004.82 1005.43 1006.06 1006.69 1007.33 1007.95 1008.54 1009.07 1009.54 1009.98 1010.40 1010.82 1011.27 1011.76 1012.29 1012.86 1013.45 1014.03 1014.57 1015.06 1015.47 1015.80 1016.07 1016.27 1016.43 1016.56 1016.67 1016.78 1016.90 1017.02 1017.14 1017.27 1017.42 1017.58 1017.75
997.43 998.50 999.58 1000.62 1001.60 1002.50 1003.32 1004.09 1004.83 1005.54 1006.23 1006.90 1007.53 1008.12 1008.66 1009.14 1009.57 1009.98 1010.39 1010.81 1011.27 1011.77 1012.31 1012.88 1013.46 1014.02 1014.54 1014.98 1015.36 1015.66 1015.89 1016.06 1016.19 1016.30 1016.40 1016.50 1016.61 1016.73 1016.85 1016.99 1017.14 1017.31 1017.49
997.19 998.11 999.10 1000.09 1001.07 1002.02 1002.93 1003.80 1004.64 1005.43 1006.18 1006.88 1007.52 1008.09 1008.60 1009.05 1009.46 1009.86 1010.27 1010.70 1011.17 1011.69 1012.25 1012.82 1013.39 1013.92 1014.40 1014.82 1015.15 1015.41 1015.61 1015.76 1015.87 1015.98 1016.07 1016.18 1016.30 1016.42 1016.56 1016.70 1016.86 1017.02 1017.20
996.95 997.73 998.60 999.53 1000.48 1001.44 1002.40 1003.34 1004.25 1005.11 1005.91 1006.64 1007.29 1007.86 1008.36 1008.81 1009.22 1009.63 1010.04 1010.49 1010.98 1011.51 1012.07 1012.64 1013.18 1013.69 1014.14 1014.51 1014.81 1015.04 1015.22 1015.36 1015.48 1015.60 1015.72 1015.85 1015.99 1016.14 1016.30 1016.45 1016.61 1016.76 1016.92
996.77 997.41 998.16 998.99 999.89 1000.83 1001.79 1002.76 1003.71 1004.61 1005.45 1006.21 1006.89 1007.48 1008.00 1008.46 1008.89 1009.31 1009.74 1010.21 1010.71 1011.23 1011.78 1012.33 1012.84 1013.32 1013.73 1014.07 1014.35 1014.57 1014.75 1014.90 1015.05 1015.21 1015.37 1015.55 1015.73 1015.92 1016.10 1016.27 1016.42 1016.55 1016.67
996.68 997.18 997.81 998.54 999.36 1000.25 1001.19 1002.15 1003.10 1004.02 1004.89 1005.69 1006.40 1007.02 1007.57 1008.06 1008.51 1008.95 1009.40 1009.87 1010.36 1010.88 1011.40 1011.91 1012.39 1012.83 1013.21 1013.54 1013.81 1014.04 1014.25 1014.44 1014.64 1014.86 1015.08 1015.32 1015.56 1015.79 1015.99 1016.17 1016.30 1016.41 1016.47
996.72 997.10 997.61 998.23 998.96 999.77 1000.65 1001.57 1002.52 1003.44 1004.33 1005.15 1005.89 1006.56 1007.14 1007.67 1008.15 1008.60 1009.06 1009.52 1009.99 1010.48 1010.97 1011.44 1011.89 1012.30 1012.67 1012.99 1013.28 1013.54 1013.79 1014.04 1014.30 1014.58 1014.87 1015.16 1015.45 1015.71 1015.93 1016.10 1016.22 1016.28 1016.29
996.89 997.18 997.58 998.09 998.71 999.43 1000.24 1001.11 1002.02 1002.93 1003.82 1004.67 1005.44 1006.14 1006.76 1007.31 1007.81 1008.28 1008.73 1009.18 1009.63 1010.08 1010.53 1010.97 1011.39 1011.79 1012.15 1012.49 1012.81 1013.11 1013.42 1013.73 1014.05 1014.38 1014.72 1015.05 1015.36 1015.63 1015.85 1016.01 1016.09 1016.11 1016.06
997.21 997.41 997.72 998.12 998.64 999.26 999.99 1000.79 1001.65 1002.54 1003.42 1004.27 1005.07 1005.79 1006.43 1007.01 1007.52 1007.99 1008.43 1008.85 1009.27 1009.69 1010.11 1010.53 1010.94 1011.34 1011.72 1012.09 1012.45 1012.80 1013.15 1013.51 1013.86 1014.22 1014.58 1014.91 1015.21 1015.46 1015.66 1015.78 1015.82 1015.80 1015.70
997.63 997.76 997.97 998.29 998.71 999.23 999.87 1000.60 1001.41 1002.26 1003.12 1003.97 1004.76 1005.49 1006.15 1006.73 1007.24 1007.70 1008.12 1008.52 1008.91 1009.31 1009.72 1010.13 1010.55 1010.97 1011.38 1011.79 1012.19 1012.58 1012.96 1013.33 1013.69 1014.04 1014.36 1014.65 1014.90 1015.10 1015.24 1015.31 1015.32 1015.25 1015.13
998.09 998.16 998.30 998.53 998.86 999.30 999.86 1000.52 1001.26 1002.06 1002.89 1003.71 1004.49 1005.21 1005.86 1006.42 1006.92 1007.36 1007.76 1008.14 1008.51 1008.90 1009.30 1009.73 1010.17 1010.62 1011.08 1011.53 1011.96 1012.38 1012.76 1013.12 1013.44 1013.73 1013.98 1014.19 1014.36 1014.47 1014.54 1014.56 1014.52 1014.44 1014.32
998.55 998.57 998.65 998.80 999.05 999.42 999.89 1000.48 1001.15 1001.90 1002.67 1003.44 1004.19 1004.87 1005.49 1006.02 1006.49 1006.90 1007.28 1007.64 1008.00 1008.39 1008.81 1009.26 1009.74 1010.23 1010.73 1011.21 1011.67 1012.08 1012.45 1012.76 1013.02 1013.22 1013.36 1013.47 1013.53 1013.56 1013.55 1013.52 1013.46 1013.39 1013.29
Thickness
5836 5834 5830 5826 5820 5813 5807 5803 5800 5798 5795 5792 5789 5786 5784 5784 5783 5782 5781 5779 5778 5776 5775 5774 5772 5772 5769 5768 5767 5765 5762 5761 5761 5756 5753 5755 5757 5756 5755 5754 5753 5752 5751
5835 5832 5830 5827 5821 5814 5809 5805 5801 5799 5797 5794 5792 5790 5788 5786 5785 5784 5781 5780 5778 5777 5777 5774 5772 5771 5769 5767 5766 5764 5760 5759 5760 5754 5748 5744 5746 5750 5755 5753 5752 5751 5751
5836 5832 5830 5827 5823 5817 5812 5808 5804 5801 5798 5796 5794 5791 5789 5786 5784 5782 5780 5780 5779 5778 5776 5774 5773 5771 5770 5766 5765 5763 5760 5756 5758 5758 5751 5743 5738 5741 5747 5750 5750 5749 5748
5845 5838 5833 5828 5825 5821 5817 5812 5807 5804 5800 5798 5794 5789 5784 5781 5782 5782 5781 5781 5780 5778 5777 5775 5773 5771 5770 5767 5766 5765 5763 5759 5755 5756 5757 5754 5750 5741 5736 5741 5745 5747 5746
5851 5844 5838 5833 5830 5826 5821 5815 5810 5805 5802 5799 5796 5791 5787 5785 5785 5784 5781 5780 5780 5779 5777 5775 5773 5771 5769 5767 5765 5764 5763 5761 5757 5755 5754 5753 5752 5750 5741 5734 5737 5741 5744
5856 5849 5844 5838 5833 5830 5824 5818 5810 5806 5803 5800 5797 5793 5789 5787 5784 5782 5779 5779 5779 5778 5776 5775 5773 5771 5769 5767 5766 5764 5762 5760 5759 5757 5755 5752 5749 5746 5743 5737 5734 5734 5738
5859 5851 5843 5837 5833 5829 5825 5819 5812 5806 5804 5801 5798 5795 5792 5789 5785 5782 5780 5779 5778 5776 5775 5775 5772 5770 5769 5767 5766 5763 5762 5760 5758 5756 5755 5754 5753 5751 5747 5740 5735 5733 5734
5862 5854 5847 5840 5835 5831 5826 5821 5813 5808 5805 5802 5798 5796 5793 5790 5787 5784 5782 5780 5778 5777 5776 5773 5772 5770 5768 5767 5765 5763 5761 5760 5758 5757 5755 5753 5753 5751 5748 5742 5735 5728 5727
5862 5856 5850 5844 5838 5832 5828 5823 5816 5810 5806 5803 5800 5797 5794 5791 5788 5785 5783 5780 5778 5777 5775 5773 5770 5769 5767 5765 5763 5761 5759 5758 5756 5755 5753 5751 5751 5750 5749 5745 5740 5731 5721
5858 5854 5849 5845 5841 5835 5830 5826 5819 5812 5808 5805 5801 5797 5794 5791 5788 5785 5781 5779 5778 5776 5773 5771 5769 5767 5765 5764 5762 5759 5758 5756 5754 5753 5750 5749 5748 5747 5746 5743 5740 5736 5727
5857 5853 5849 5845 5841 5837 5831 5825 5820 5814 5809 5805 5801 5798 5794 5791 5787 5784 5781 5779 5777 5774 5771 5769 5767 5764 5763 5761 5759 5757 5756 5753 5751 5750 5748 5745 5744 5742 5741 5739 5736 5732 5727
5856 5853 5848 5844 5839 5835 5831 5825 5820 5814 5810 5806 5802 5798 5794 5790 5786 5783 5780 5778 5775 5773 5770 5767 5764 5762 5760 5759 5756 5754 5753 5750 5748 5746 5745 5742 5741 5738 5735 5733 5730 5727 5725
5850 5847 5844 5839 5835 5832 5829 5825 5820 5815 5812 5807 5802 5797 5793 5789 5785 5782 5780 5777 5774 5771 5769 5766 5762 5760 5759 5757 5755 5753 5751 5748 5746 5744 5741 5739 5736 5732 5730 5727 5724 5722 5721
5844 5841 5837 5835 5832 5829 5826 5823 5819 5816 5812 5806 5801 5795 5792 5789 5785 5782 5779 5776 5773 5770 5767 5764 5762 5760 5757 5755 5753 5751 5748 5746 5743 5741 5738 5735 5732 5728 5725 5723 5720 5718 5715
5836 5834 5831 5829 5828 5825 5822 5819 5816 5814 5810 5804 5799 5795 5792 5789 5785 5781 5778 5775 5771 5769 5765 5763 5760 5758 5755 5753 5750 5748 5746 5742 5739 5737 5735 5731 5728 5725 5722 5719 5715 5713 5709
5830 5829 5827 5824 5822 5820 5818 5815 5812 5811 5807 5801 5796 5794 5790 5786 5782 5779 5776 5772 5769 5766 5764 5761 5758 5755 5753 5751 5748 5746 5743 5740 5737 5733 5730 5728 5724 5721 5718 5715 5712 5709 5705
5826 5824 5823 5821 5819 5818 5815 5811 5809 5807 5803 5798 5794 5791 5787 5783 5780 5778 5773 5769 5766 5763 5760 5758 5755 5751 5749 5747 5745 5742 5740 5737 5734 5731 5727 5725 5722 5718 5714 5711 5709 5706 5703
5823 5821 5820 5819 5818 5816 5812 5810 5807 5802 5797 5792 5790 5787 5784 5780 5777 5773 5770 5767 5764 5760 5757 5754 5752 5749 5746 5743 5741 5738 5736 5734 5731 5728 5724 5719 5716 5714 5710 5708 5705 5703 5700
5822 5819 5819 5818 5815 5812 5809 5804 5800 5797 5793 5789 5786 5785 5782 5778 5773 5769 5766 5764 5761 5757 5754 5752 5749 5745 5742 5739 5737 5734 5732 5729 5727 5724 5720 5716 5712 5709 5705 5703 5700 5697 5696
5818 5816 5815 5813 5808 5806 5804 5798 5794 5791 5788 5787 5785 5782 5779 5774 5770 5767 5764 5761 5758 5755 5752 5749 5746 5743 5739 5735 5732 5728 5728 5725 5722 5719 5716 5711 5707 5704 5700 5698 5694 5691 5690
5809 5809 5807 5804 5802 5801 5798 5791 5789 5786 5786 5785 5782 5779 5775 5771 5768 5764 5761 5757 5753 5750 5747 5744 5742 5740 5736 5732 5727 5723 5721 5719 5716 5714 5711 5707 5702 5699 5696 5692 5689 5686 5685
5798 5799 5797 5795 5795 5795 5790 5784 5782 5783 5783 5780 5776 5772 5770 5767 5764 5759 5755 5752 5748 5744 5742 5739 5737 5736 5733 5728 5723 5719 5715 5713 5710 5708 5706 5702 5697 5693 5690 5688 5686 5683 5680
5787 5789 5787 5785 5785 5785 5783 5777 5777 5777 5775 5771 5768 5765 5763 5760 5758 5753 5749 5745 5742 5740 5738 5735 5732 5730 5729 5724 5719 5714 5711 5707 5705 5703 5700 5696 5691 5688 5685 5683 5680 5678 5676
5774 5777 5777 5774 5773 5775 5774 5772 5771 5770 5767 5762 5760 5758 5755 5752 5750 5747 5745 5741 5738 5736 5733 5731 5728 5726 5723 5718 5714 5710 5706 5701 5698 5696 5692 5690 5686 5683 5680 5678 5676 5674 5673
5763 5765 5765 5764 5764 5765 5765 5764 5763 5762 5758 5755 5753 5751 5749 5746 5743 5740 5738 5735 5732 5731 5729 5727 5724 5720 5716 5711 5707 5704 5701 5698 5694 5689 5687 5684 5681 5678 5676 5674 5672 5670 5668
5754 5754 5756 5756 5756 5756 5755 5756 5756 5754 5750 5747 5745 5744 5743 5740 5738 5734 5729 5726 5726 5724 5722 5720 5718 5714 5710 5705 5700 5697 5695 5691 5687 5683 5681 5679 5677 5674 5672 5669 5666 5664 5661